TIME,DELAY(SENSOR),PRES,T(CTD),SAL,OXYGEN,RAWTEMP,T(OPTODE),TCPHASE,FLUOR,BETA(BETA700),BETA(BETA412),BETA(BETA440),CDOM,C(CSC),ED(ED412.40),ED(ED444.00),ED(ED489.70),ED(ED554.30),LU(LU411.80),LU(LU443.40),LU(LU489.60),LU(LU554.10),COMP,TILTX,TILTX(TILTY),CHECK
1359841140,5807,495.2399902343750000,6.5005998611450195,34.1259002685546900,76.5777130126953100,603.1956176757812000,6.4809889793396000,49.3610992431640600,52,103,86,80,80,14996,2147746221,2147426240,2148006939,2147872603,2147628726,2147073856,2148245449,2147201508,502,4,13,11498
1359841281,5807,484.6499938964844000,6.7428998947143555,34.1208992004394500,83.6809463500976600,595.7962036132812000,6.7199797630310060,48.4206314086914060,51,105,89,80,79,14994,2147748525,2147424338,2148005723,2147873865,2147624466,2147077787,2148243574,2147198080,338,4,13,13242
1359841432,5808,473.5499877929687500,6.8756999969482420,34.1240997314453100,87.7418212890625000,591.3900756835938000,6.8620448112487790,47.8906402587890600,51,103,88,80,79,14992,2147745874,2147429174,2148005458,2147871844,2147628937,2147080512,2148245504,2147198125,827,4,13,45734
1359841580,5808,461.4700012207031000,7.1045999526977540,34.1197013854980500,93.8290863037109400,584.2094116210938000,7.0931868553161620,47.1084403991699200,51,103,86,80,78,14992,2147744749,2147423789,2148007085,2147875812,2147627657,2147076781,2148239753,2147199104,72,4,13,46822
1359841695,5806,450.7099914550781000,7.2069001197814940,34.0931015014648440,104.4364013671875000,581.5180053710938000,7.1797008514404300,45.9449195861816400,51,103,89,80,77,14995,2147748480,2147422939,2148006976,2147873865,2147624100,2147082212,2148240246,2147201069,801,4,13,52620
1359841824,5808,439.3200073242187500,7.5577001571655270,34.1091003417968750,110.3722000122070300,570.5856933593750000,7.5304388999938965,45.1647415161132800,50,103,90,81,76,14991,2147745993,2147423552,2148004726,2147873856,2147625133,2147078793,2148242038,2147200036,758,4,13,6206
1359841951,5809,428.7500000000000000,7.6708002090454100,34.1059989929199200,116.3686981201171900,565.4417724609375000,7.6951031684875490,44.4889488220214840,52,104,89,78,76,14992,2147742985,2147423222,2148005312,2147871716,2147623744,2147083126,2148242057,2147201325,1032,3,13,43323
1359842090,5808,417.9500122070312500,7.9590001106262210,34.0945014953613300,125.0942993164062500,557.5471801757812000,7.9473819732666020,43.5292510986328100,50,103,86,80,76,14992,2147741622,2147425700,2148006052,2147873709,2147622976,2147083044,2148234925,2147201856,1188,4,13,64922
1359842231,5807,406.8699951171875000,8.3999996185302730,34.0980987548828100,133.9716949462890600,543.9019165039062000,8.3821926116943360,42.4941406250000000,50,104,87,80,76,14991,2147740516,2147424621,2148002240,2147871506,2147622171,2147082660,2148230518,2147198262,1819,4,13,48211
1359842370,5807,395.7300109863281000,8.6674003601074220,34.0908012390136700,147.3688049316406200,535.6228027343750000,8.6452713012695310,41.2074012756347660,50,105,87,80,75,14991,2147741202,2147424448,2148001792,2147872064,2147618825,2147086738,2148231789,2147202267,1195,4,13,25202
1359842499,5811,384.3399963378906000,8.9552001953125000,34.0983009338378900,156.0037994384765600,526.4445800781250000,8.9362907409667970,40.3523483276367200,49,105,89,80,74,14990,2147738806,2147424676,2148004342,2147873938,2147617938,2147090669,2148232448,2147202038,959,3,13,24347
1359842626,5803,372.8800048828125000,9.1695995330810550,34.0979003906250000,162.8811950683593800,519.6815185546875000,9.1503162384033200,39.7045211791992200,50,108,89,80,72,14990,2147738596,2147425984,2148004809,2147873435,2147615323,2147087341,2148227382,2147203163,244,4,13,28437
1359842755,5809,361.9500122070312500,9.4801998138427730,34.0997009277343750,171.1730041503906200,509.3381958007812500,9.4769878387451170,38.9136314392089840,49,102,88,81,74,14990,2147736758,2147422098,2148004608,2147871314,2147615753,2147088082,2148225334,2147202587,2512,4,13,4563
1359842882,5804,352.0799865722656000,9.7545995712280270,34.1071014404296900,180.0180969238281200,500.2539062500000000,9.7632598876953120,38.1330795288085940,50,105,86,80,74,14989,2147735606,2147425490,2148006098,2147870884,2147612361,2147098212,2148227593,2147209938,1789,4,13,4697
1359843045,5805,340.8399963378906000,10.0961999893188480,34.1184997558593750,186.8551025390625000,489.8380126953125000,10.0907897949218750,37.4932518005371100,49,105,87,80,71,14988,2147732946,2147426889,2148004717,2147871177,2147611236,2147097993,2148223634,2147200292,2006,3,14,43792
1359843193,5808,329.1099853515625000,10.5913000106811520,34.1262016296386700,193.3235931396484400,474.3200988769531000,10.5774097442626950,36.8119316101074200,48,104,87,79,70,14987,2147733220,2147423753,2148012461,2147870948,2147611309,2147102893,2148224073,2147206217,2633,4,14,57934
1359843320,5806,318.0700073242187500,11.0302000045776370,34.1445007324218750,198.3190002441406200,460.2831115722656000,11.0162801742553710,36.2649917602539060,48,104,87,80,69,14990,2147731712,2147433490,2148015780,2147869174,2147606153,2147108525,2148227712,2147207954,2604,3,13,2004
1359843449,5806,307.0000000000000000,11.5106000900268550,34.1654014587402340,202.8453979492187500,445.2937011718750000,11.4836397171020500,35.7426490783691400,49,105,88,78,70,14986,2147730450,2147435529,2148028105,2147871460,2147605083,2147112950,2148227172,2147209088,3174,4,14,40578
1359843576,5808,296.0100097656250000,12.0205001831054690,34.2006988525390600,206.3684997558593800,428.5123901367187500,12.0053997039794920,35.2622489929199200,49,104,85,80,69,14987,2147727853,2147436553,2148037202,2147868882,2147603776,2147121371,2148232393,2147207835,3304,3,14,30026
1359843703,5809,285.2799987792969000,12.6628999710083000,34.2229003906250000,209.5558013916015600,408.4436035156250000,12.6274900436401370,34.7581214904785160,49,104,86,81,68,14985,2147730285,2147443062,2148049874,2147872082,2147598875,2147124617,2148231277,2147207789,3013,4,14,20112
1359843844,5809,274.6099853515625000,13.0747003555297850,34.2140998840332000,210.4326934814453000,394.5835876464844000,13.0560197830200200,34.4920501708984400,49,101,88,80,68,14986,2147730678,2147454098,2148070966,2147873051,2147598336,2147133878,2148241554,2147210523,1041,4,14,24554
1359843995,5808,264.2000122070312500,13.5986003875732420,34.2705001831054700,210.2500000000000000,377.0739135742187500,13.5962400436401370,34.2324485778808600,48,102,86,79,68,14985,2147723126,2147469174,2148099538,2147873042,2147594889,2147142774,2148251977,2147210230,1783,3,14,21161
1359844142,5808,252.5099945068359400,14.5595998764038090,34.3578987121582000,209.0276947021484400,345.1931152343750000,14.5769500732421880,33.8200187683105500,49,101,89,80,68,14981,2147728064,2147491410,2148145618,2147873956,2147594331,2147162413,2148273142,2147214445,1848,3,14,58545
1359844269,5808,241.0299987792968800,15.3273000717163090,34.4564018249511700,215.1515045166015600,320.7333068847656000,15.3272800445556640,33.1136512756347660,48,100,87,80,65,14986,2147730331,2147529069,2148213860,2147872512,2147591396,2147193709,2148302491,2147218669,1697,3,14,40186
1359844398,5807,230.2400054931640600,15.9604997634887700,34.5443992614746100,222.4131927490234400,300.3958129882812500,15.9500703811645500,32.4276885986328100,49,100,87,79,66,14984,2147741586,2147584320,2148298742,2147873033,2147592228,2147230244,2148337609,2147224411,1489,3,14,34488
1359844537,5806,220.1600036621093800,16.7765007019042970,34.6441993713378900,223.4250946044922000,274.0664062500000000,16.7552700042724600,32.0000000000000000,49,100,87,80,65,14983,2147756845,2147656438,2148409554,2147869257,2147594432,2147275748,2148393508,2147230482,734,3,14,19703
1359844708,5803,208.4199981689453000,17.6313991546630860,34.7551002502441400,221.4338989257812500,245.6663970947265600,17.6229000091552730,31.7065391540527340,49,102,89,79,66,14975,2147794669,2147780525,2148587922,2147872603,2147606546,2147359250,2148483913,2147235428,3136,2,14,25657
1359844835,5806,196.4199981689453000,18.2240009307861330,34.8392982482910160,219.6147003173828000,225.5852966308593800,18.2361507415771500,31.5240993499755860,49,102,87,80,65,14978,2147868644,2147987392,2148861732,2147872384,2147638418,2147496438,2148621641,2147246811,2103,2,15,215
1359844890,5810,190.9700012207031200,18.7672996520996100,34.9110984802246100,220.5538024902343800,209.4734039306640600,18.7282104492187500,31.2544898986816400,50,101,87,80,64,14977,2147924617,2148112585,2149037110,2147871049,2147658121,2147576576,2148706761,2147256640,1708,3,14,10389
1359844945,5809,185.6999969482422000,18.9139995574951170,34.9399986267089840,222.5897979736328000,203.4277954101562500,18.9128704071044920,31.0669898986816400,50,101,85,79,64,14975,2147992704,2148243209,2149208246,2147875629,2147689371,2147669970,2148799085,2147263789,2140,3,15,61287
1359845020,5805,178.7799987792968800,19.4836997985839840,35.0144996643066400,221.7369995117187500,184.6654052734375000,19.4861392974853500,30.8577404022216800,52,101,88,81,64,14970,2148101421,2148443968,2149462884,2147875282,2147735908,2147806061,2148938916,2147276882,2728,2,15,58048
1359845075,5807,174.6000061035156200,19.7898998260498050,35.0601997375488300,221.6387023925781200,174.9900054931640600,19.7819194793701170,30.7331199645996100,53,104,90,81,63,14969,2148191588,2148608475,2149676973,2147876562,2147776512,2147918509,2149046811,2147286793,2390,2,15,17831
1359845130,5808,170.6399993896484400,19.9389991760253900,35.0816993713378900,222.4270019531250000,169.2341003417968800,19.9579296112060550,30.6159992218017580,53,103,87,79,63,14965,2148295222,2148792621,2149900452,2147878034,2147827044,2148036260,2149167387,2147296777,1765,2,15,27533
1359845185,5810,166.9400024414062500,20.3129997253417970,35.1234016418457000,223.4859924316406200,158.4109039306640600,20.2890491485595700,30.4186801910400400,58,106,86,80,62,14961,2148411108,2148973586,2150134902,2147878171,2147885485,2148165677,2149283373,2147303771,1372,3,15,10365
1359845252,5806,162.7799987792968800,20.4850997924804700,35.1459999084472660,224.3464050292968800,151.9564056396484400,20.4866199493408200,30.2899703979492200,65,114,89,81,64,14956,2148585728,2149232621,2150453942,2147881901,2147962688,2148340205,2149445120,2147317394,165,2,15,5025
1359845331,5807,158.6199951171875000,20.7173004150390620,35.1683006286621100,224.9629058837890600,145.1654968261718800,20.6945705413818360,30.1699695587158200,67,108,87,81,63,14948,2148776457,2149485028,2150753792,2147881819,2148050441,2148497298,2149607826,2147331858,3403,2,15,18568
1359845422,5808,154.9499969482422000,20.8691005706787100,35.1846008300781250,225.1551971435547000,140.6343994140625000,20.8333702087402340,30.1009101867675780,71,112,87,82,63,14945,2149033051,2149858779,2151202633,2147884096,2148166445,2148713709,2149809883,2147346450,633,3,15,40685
1359845537,5809,150.9100036621093800,21.3045997619628900,35.2210998535156250,225.1670074462890600,126.0989990234375000,21.2789802551269530,29.9104194641113280,79,112,90,81,62,14931,2149379044,2150305536,2151700992,2147887396,2148321353,2148958134,2150043931,2147368758,1092,2,16,34538
1359845660,5808,146.4499969482422000,21.5594005584716800,35.2472991943359400,226.3979034423828000,117.4098968505859400,21.5456295013427730,29.7369098663330080,83,119,86,83,62,14927,2149913261,2150952475,2152439085,2147893897,2148550272,2149315318,2150380973,2147397760,3504,2,16,11577
1359845739,5809,142.8000030517578000,21.6849994659423830,35.2575988769531250,227.0469970703125000,113.0031967163086000,21.6809406280517580,29.6479396820068360,85,117,89,81,61,14918,2150400795,2151525522,2153064566,2147898633,2148772416,2149636589,2150674761,2147422848,3134,2,16,19990
1359845806,5811,139.9100036621093800,21.9617996215820300,35.2711982727050800,227.5534973144531200,105.8215026855468800,21.9015808105468750,29.5306491851806640,92,116,93,81,62,14908,2150863670,2152069202,2153667474,2147904694,2148981604,2149907867,2150926262,2147446582,41,2,15,14920
1359845923,5810,136.0899963378906200,22.4213008880615230,35.2910003662109400,229.3576965332031200,89.8509063720703100,22.3928508758544920,29.2384796142578120,106,119,89,81,61,14893,2151552841,2152909997,2154554294,2147913920,2149303625,2150326500,2151297526,2147477632,1211,2,16,61033
1359846122,5810,132.4299926757812500,22.6662998199462900,35.3171005249023440,231.9358062744140600,81.5981674194336000,22.6470699310302730,29.0106391906738280,118,120,91,82,60,14877,2152252589,2153687780,2155420178,2147921691,2149622674,2150697810,2151661101,2147515364,3399,2,16,29244
1359846296,5809,127.6100006103515600,22.7546005249023440,35.3274002075195300,233.0628967285156200,78.0395584106445300,22.7567691802978500,28.9123497009277340,118,130,89,83,61,14873,2153618340,2155268891,2157065545,2147940918,2150278857,2151465033,2152340324,2147579062,2536,1,16,34033
1359846387,5804,123.8300018310546900,22.8966007232666000,35.3288993835449200,234.0783996582031200,74.1378097534179700,22.8770999908447270,28.8155307769775400,123,121,88,84,59,14860,2155021650,2156931410,2158781577,2147957897,2150977280,2152289645,2153078518,2147642688,2205,2,16,35864
1359846502,5806,120.1299972534179700,23.3083000183105470,35.3572998046875000,233.8477935791015600,62.8004913330078100,23.2270908355712900,28.6831398010253900,124,124,91,84,58,14848,2156586514,2158692982,2160560219,2147974436,2151730889,2153103972,2153806784,2147715382,2778,2,16,51345
1359846641,5808,115.7200012207031200,23.4328994750976560,35.3847007751464840,237.2693939208984400,56.5573806762695300,23.4200592041015620,28.4470100402832030,111,118,90,84,58,14863,2159118582,2161694784,2163596918,2148011757,2153334838,2154868077,2155261302,2147849380,482,2,15,41836
1359846732,5811,111.8000030517578100,23.4309997558593750,35.3358993530273440,238.2120056152343800,56.2202491760253900,23.4304904937744140,28.3999195098876950,103,124,90,83,59,14858,2161622765,2164578587,2166302217,2148060434,2154975369,2156675922,2156695579,2147984301,854,2,15,2113
1359846835,5806,107.7300033569336000,23.4440994262695300,35.3174018859863300,238.4073028564453000,55.8156394958496100,23.4430007934570300,28.3859596252441400,102,119,92,83,58,14858,2164353353,2167335250,2168675392,2148113216,2156655360,2158472594,2158146212,2148119552,3314,2,16,52725
1359846926,5809,103.4000015258789000,23.6403007507324220,35.3217010498046900,238.8746032714843800,50.2307701110839840,23.6157894134521500,28.2950706481933600,77,120,91,84,57,14865,2168550893,2171983232,2172882349,2148196544,2159532672,2161623963,2160642578,2148342445,2892,2,16,50801
1359847005,5808,99.1699981689453100,23.6909999847412100,35.3308982849121100,240.1213989257812500,47.7914581298828100,23.6912994384765620,28.2083892822265620,73,120,89,84,59,14871,2172631872,2176324617,2176870893,2148299812,2163053586,2165440356,2163414006,2148583835,130,2,15,46014
1359847060,5807,96.1800003051757800,23.7586002349853500,35.3282012939453100,240.6345977783203000,45.8692512512207000,23.7508201599121100,28.1615791320800780,71,117,91,84,60,14869,2175474075,2179391515,2179623680,2148383753,2165789604,2168260708,2165373577,2148752576,408,2,16,15757
1359847115,5805,93.4599990844726600,23.7677993774414060,35.3102989196777340,241.0614929199218800,45.4579582214355500,23.7635593414306640,28.1373195648193360,67,119,90,83,56,14872,2178207168,2182442294,2182589494,2148493211,2168871744,2171385508,2167529462,2148935378,458,2,16,38717
1359847170,5806,90.6200027465820300,23.7747993469238280,35.3078002929687500,241.4954071044922000,45.2192687988281250,23.7709503173828120,28.1150093078613280,67,117,91,83,56,14872,2181576859,2186260617,2186181622,2148628525,2172617499,2175091712,2169968795,2149147017,803,2,16,28530
1359847227,5808,87.5699996948242200,23.7761001586914060,35.3067016601562500,241.5971069335937500,45.1256408691406250,23.7738609313964840,28.1091403961181640,66,118,92,85,56,14872,2184802752,2189985755,2189740425,2148794185,2176793453,2179343616,2172848621,2149397321,979,2,16,57813
1359847282,5813,84.5299987792968800,23.7798995971679700,35.3064994812011700,241.8233032226562500,44.9972000122070300,23.7778301239013670,28.0976200103759770,65,117,93,83,58,14865,2188394221,2194031158,2193643766,2148989997,2180981485,2183563739,2175730797,2149657289,1093,2,16,26417
1359847337,5808,81.3899993896484400,23.7823009490966800,35.3069992065429700,241.8462982177734400,44.9087905883789060,23.7805690765380860,28.0955295562744140,64,116,90,84,56,14862,2192632374,2198650861,2198034523,2149273883,2185886747,2188442468,2178980992,2149956982,1168,1,16,43131
1359847392,5805,78.1900024414062500,23.7861995697021500,35.3069000244140600,241.8480987548828000,44.7960815429687500,23.7840595245361330,28.0939998626709000,63,115,92,83,61,14868,2197605878,2204284845,2203521728,2149663003,2191780809,2194473609,2183225728,2150355401,1248,1,16,59266
1359847447,5807,74.9700012207031200,23.7917995452880860,35.3068008422851560,242.0162048339843800,44.6267318725585940,23.7893104553222660,28.0844497680664060,62,117,89,84,58,14868,2202075638,2209060205,2207941302,2150041142,2197591762,2200157019,2186954422,2150738294,1303,2,16,57768
1359847502,5807,71.7500000000000000,23.7950000762939450,35.3074989318847660,242.0471954345703000,44.4899291992187500,23.7935504913330080,28.0812492370605470,61,117,91,83,55,14871,2208219821,2215932973,2214837650,2150597458,2204370057,2207032978,2191722971,2151201984,1228,1,16,25132
1359847559,5804,68.4899978637695300,23.8029994964599600,35.3083992004394500,242.0335998535156200,44.2260589599609400,23.8017196655273440,28.0786800384521500,62,114,90,86,58,14870,2214567469,2222888064,2221566473,2151410340,2211878701,2214386130,2196705974,2151749851,1406,2,16,61803
1359847614,5809,65.3700027465820300,23.8353004455566400,35.3119010925293000,241.9125061035156200,43.1694107055664060,23.8344593048095700,28.0707893371582030,59,115,89,83,58,14865,2220413915,2229429467,2228021869,2152192859,2218286400,2220651337,2200840813,2152195291,1678,2,16,40455
1359847669,5807,62.4300003051757800,23.8560009002685550,35.3157997131347660,241.8009948730468800,42.3727989196777340,23.8591403961181640,28.0658607482910160,60,115,89,82,57,14866,2227603364,2237480402,2236330596,2153327936,2226644955,2228933814,2206503323,2152865581,1875,2,16,47574
1359847724,5810,59.5800018310546900,23.8959999084472660,35.3195991516113300,241.6616058349609400,41.1681289672851560,23.8964805603027340,28.0572109222412100,58,117,91,83,59,14866,2232350747,2241882313,2240704292,2154249408,2234394880,2236629549,2211900160,2153487488,2335,1,16,6158
1359847779,5808,56.8300018310546900,23.9067001342773440,35.3199005126953100,241.6766052246093800,40.7975616455078100,23.9079608917236330,28.0518493652343750,58,114,89,84,59,14870,2240357220,2250222016,2249455981,2155692214,2241803328,2244175305,2217170459,2154093302,2525,1,16,42772
1359847834,5807,53.9900016784668000,23.9286003112792970,35.3217010498046900,241.5359039306640600,40.1088294982910160,23.9293098449707030,28.0497703552246100,57,113,89,82,57,14854,2245997101,2255560594,2253906157,2157161563,2251917238,2253600713,2223276662,2154954358,2327,1,16,7633
1359847891,5807,50.9500007629394500,23.9442005157470700,35.3232994079589840,241.5471954345703000,39.6069602966308600,23.9448699951171880,28.0429191589355470,56,113,90,84,55,14865,2256207232,2266953938,2265601453,2159654939,2263014518,2264288146,2230325019,2156052845,2152,2,16,26711
1359847946,5811,47.8600006103515600,23.9738998413085940,35.3263015747070300,241.3881988525390600,38.7057113647460940,23.9728107452392580,28.0389804840087900,57,114,92,86,55,14861,2268097124,2279878299,2278876114,2163213147,2278511680,2279826166,2241210898,2157701869,2099,2,16,63116
1359848001,5812,44.6500015258789060,23.9913005828857420,35.3280982971191400,241.4013977050781200,38.0342903137207000,23.9936294555664060,28.0299396514892580,57,114,89,83,53,14862,2273064164,2284234806,2282759881,2165806692,2292308480,2293171346,2250145883,2159172169,1682,2,16,57343
1359848056,5809,41.2599983215332000,24.0053997039794920,35.3292007446289060,241.3972930908203000,37.4799995422363300,24.0108203887939450,28.0233001708984380,55,115,90,83,56,14861,2302804434,2318743680,2319770797,2174157997,2309933010,2309866450,2261570587,2161411419,1544,1,16,38651
1359848111,5808,37.8499984741210940,24.0494995117187500,35.3320999145507800,241.1903076171875000,36.0988006591796900,24.0536594390869140,28.0153408050537100,55,113,89,84,58,14866,2316214930,2331649920,2332820178,2181099657,2331121051,2330225947,2275529298,2163966445,1326,0,16,17470
1359848166,5810,34.6100006103515600,24.0921993255615230,35.3305015563964840,240.9477996826172000,34.6417808532714840,24.0988597869873050,28.0080699920654300,55,113,89,82,58,14864,2318729536,2329789540,2331329088,2186698294,2344254390,2342387730,2284293083,2166155812,580,1,16,15865
1359848223,5805,31.2999992370605470,24.1406002044677730,35.3311004638671900,240.7850036621093800,33.0076408386230500,24.1495609283447270,27.9951400756835940,55,114,90,84,56,14868,2338340434,2350109641,2352978569,2196881444,2366545481,2363025389,2298861220,2169515136,170,2,16,1158
1359848278,5809,28.3400001525878900,24.1900997161865230,35.3348007202148440,240.2973022460937500,30.3621902465820300,24.2316799163818360,27.9841308593750000,53,113,91,82,60,14872,2360084800,2374401572,2380694418,2211967734,2395141120,2390552786,2317704283,2174554404,332,2,15,56631
1359848333,5812,25.9400005340576170,24.2486991882324220,35.3349990844726560,239.9532928466797000,29.5365600585937500,24.2573204040527340,27.9893798828125000,52,111,90,83,50,14874,2359586240,2373394761,2377481956,2217605696,2395021686,2388132416,2314340827,2175309778,961,0,17,58784
